Brunswick, GA

5:12 PM EDT on August 19, 2017 (GMT -0400)
Glynco Jetport

Weather History for KBQK - April, 2012

Change the Weather History Date:

Monday, April 23, 2012

  Actual Average Record
Temperature  
Mean Temperature 57 °F -  
Max Temperature 66 °F 81 °F 94 °F (1988)
Min Temperature 48 °F 57 °F 41 °F (1978)
Degree Days  
Heating Degree Days 8    
Growing Degree Days 7 (Base 50)    
Moisture  
Dew Point 36 °F    
Average Humidity 48    
Maximum Humidity 71    
Minimum Humidity 28    
Precipitation  
Precipitation 0.00 in - - ()
Sea Level Pressure  
Sea Level Pressure 29.76 in    
Wind  
Wind Speed 9 mph (West)    
Max Wind Speed 24 mph    
Max Gust Speed 32 mph    
Visibility 10 miles    
Events      
Averages and records for this station are not official NWS values.
T = Trace of Precipitation, MM = Missing Value Source: NWS Daily Summary

Daily Weather History Graph

Daily Weather History Graph

Search for Another Location

Airport or City:

Trip Planner

Search our weather history database for the weather conditions in past years. The results will help you decide how hot, cold, wet, or windy it might be!

Date:

Astronomy

Apr. 23, 2012 Rise Set
Actual Time 6:48 AM EDT 8:00 PM EDT
Civil Twilight 6:23 AM EDT 8:25 PM EDT
Nautical Twilight 5:53 AM EDT 8:55 PM EDT
Astronomical Twilight 5:22 AM EDT 9:26 PM EDT
Moon 8:06 AM EDT (4/23) 10:19 PM EDT (4/23)
Length of Visible Light 14h 02m
Length of Day
13h 11m
Waxing Crescent, 5% of the Moon is Illuminated
Apr 23
Waxing Crescent
Apr 29
First Quarter
May 5
Full
May 12
Last Quarter
May 20
New

Hourly Weather History & Observations

Time (EDT) Temp. Dew Point Humidity Pressure Visibility Wind Dir Wind Speed Gust Speed Precip Events Conditions
12:15 AM 59.0 °F 42.8 °F 55% 29.70 in 10.0 mi WNW 5.8 mph - N/A   Clear
12:35 AM 59.0 °F 41.0 °F 51% 29.71 in 10.0 mi WNW 6.9 mph - N/A   Clear
12:55 AM 59.0 °F 41.0 °F 51% 29.71 in 10.0 mi WNW 6.9 mph - N/A   Clear
1:15 AM 57.2 °F 41.0 °F 55% 29.71 in 10.0 mi WNW 5.8 mph - N/A   Clear
1:35 AM 55.4 °F 41.0 °F 58% 29.71 in 10.0 mi WNW 3.5 mph - N/A   Clear
1:55 AM 55.4 °F 41.0 °F 58% 29.70 in 10.0 mi WNW 3.5 mph - N/A   Clear
2:15 AM 53.6 °F 41.0 °F 62% 29.70 in 10.0 mi West 4.6 mph - N/A   Clear
2:35 AM 53.6 °F 39.2 °F 58% 29.70 in 10.0 mi West 4.6 mph - N/A   Clear
2:55 AM 53.6 °F 39.2 °F 58% 29.70 in 10.0 mi West 3.5 mph - N/A   Clear
3:15 AM 51.8 °F 39.2 °F 62% 29.70 in 10.0 mi West 3.5 mph - N/A   Clear
3:35 AM 50.0 °F 41.0 °F 71% 29.70 in 10.0 mi WSW 4.6 mph - N/A   Clear
3:55 AM 51.8 °F 41.0 °F 67% 29.71 in 10.0 mi West 4.6 mph - N/A   Clear
4:15 AM 51.8 °F 41.0 °F 67% 29.71 in 10.0 mi West 8.1 mph - N/A   Clear
4:35 AM 51.8 °F 39.2 °F 62% 29.71 in 10.0 mi West 6.9 mph - N/A   Clear
4:55 AM 50.0 °F 37.4 °F 62% 29.72 in 10.0 mi WNW 5.8 mph - N/A   Clear
5:15 AM 50.0 °F 37.4 °F 62% 29.72 in 10.0 mi West 5.8 mph - N/A   Clear
5:35 AM 50.0 °F 37.4 °F 62% 29.72 in 10.0 mi West 5.8 mph - N/A   Clear
5:55 AM 50.0 °F 39.2 °F 66% 29.73 in 10.0 mi West 8.1 mph - N/A   Clear
6:15 AM 50.0 °F 39.2 °F 66% 29.74 in 10.0 mi West 8.1 mph - N/A   Clear
6:35 AM 48.2 °F 39.2 °F 71% 29.74 in 10.0 mi West 5.8 mph - N/A   Clear
6:55 AM 50.0 °F 37.4 °F 62% 29.75 in 10.0 mi West 8.1 mph - N/A   Clear
7:15 AM 50.0 °F 37.4 °F 62% 29.75 in 10.0 mi West 8.1 mph - N/A   Clear
7:35 AM 50.0 °F 37.4 °F 62% 29.75 in 10.0 mi West 6.9 mph - N/A   Clear
7:55 AM 51.8 °F 37.4 °F 58% 29.76 in 10.0 mi WNW 10.4 mph 17.3 mph N/A   Clear
8:15 AM 51.8 °F 37.4 °F 58% 29.76 in 10.0 mi West 10.4 mph 16.1 mph N/A   Clear
8:35 AM 53.6 °F 37.4 °F 54% 29.76 in 10.0 mi West 11.5 mph 17.3 mph N/A   Clear
8:55 AM 53.6 °F 37.4 °F 54% 29.76 in 10.0 mi WNW 15.0 mph 20.7 mph N/A   Clear
9:15 AM 53.6 °F 35.6 °F 51% 29.76 in 10.0 mi West 15.0 mph 24.2 mph N/A   Clear
9:35 AM 55.4 °F 35.6 °F 47% 29.76 in 10.0 mi WNW 17.3 mph 25.3 mph N/A   Clear
9:55 AM 55.4 °F 35.6 °F 47% 29.76 in 10.0 mi West 13.8 mph 25.3 mph N/A   Clear
10:15 AM 57.2 °F 35.6 °F 44% 29.76 in 10.0 mi WNW 15.0 mph 25.3 mph N/A   Clear
10:35 AM 59.0 °F 35.6 °F 42% 29.77 in 10.0 mi West 15.0 mph 21.9 mph N/A   Clear
10:55 AM 59.0 °F 35.6 °F 42% 29.77 in 10.0 mi West 18.4 mph 27.6 mph N/A   Clear
11:15 AM 60.8 °F 35.6 °F 39% 29.76 in 10.0 mi WNW 13.8 mph 27.6 mph N/A   Clear
11:35 AM 60.8 °F 33.8 °F 36% 29.75 in 10.0 mi WNW 12.7 mph 26.5 mph N/A   Clear
11:55 AM 60.8 °F 33.8 °F 36% 29.76 in 10.0 mi West 23.0 mph 32.2 mph N/A   Clear
12:15 PM 62.6 °F 35.6 °F 37% 29.75 in 10.0 mi West 17.3 mph 24.2 mph N/A   Clear
12:35 PM 62.6 °F 35.6 °F 37% 29.75 in 10.0 mi West 20.7 mph 28.8 mph N/A   Scattered Clouds
12:55 PM 62.6 °F 33.8 °F 34% 29.75 in 10.0 mi West 16.1 mph 29.9 mph N/A   Scattered Clouds
1:15 PM 64.4 °F 35.6 °F 34% 29.75 in 10.0 mi West 17.3 mph 25.3 mph N/A   Scattered Clouds
1:35 PM 64.4 °F 33.8 °F 32% 29.75 in 10.0 mi West 24.2 mph 29.9 mph N/A   Scattered Clouds
1:55 PM 64.4 °F 35.6 °F 34% 29.74 in 10.0 mi WNW 12.7 mph 24.2 mph N/A   Scattered Clouds
2:15 PM 64.4 °F 35.6 °F 34% 29.75 in 10.0 mi West 23.0 mph 32.2 mph N/A   Scattered Clouds
2:35 PM 64.4 °F 33.8 °F 32% 29.74 in 10.0 mi WNW 13.8 mph 28.8 mph N/A   Scattered Clouds
2:55 PM 66.2 °F 33.8 °F 30% 29.75 in 10.0 mi West 18.4 mph 27.6 mph N/A   Scattered Clouds
3:15 PM 64.4 °F 32.0 °F 30% 29.74 in 10.0 mi West 16.1 mph 29.9 mph N/A   Scattered Clouds
3:35 PM 66.2 °F 33.8 °F 30% 29.74 in 10.0 mi WNW 13.8 mph 25.3 mph N/A   Scattered Clouds
3:55 PM 66.2 °F 32.0 °F 28% 29.74 in 10.0 mi West 19.6 mph 29.9 mph N/A   Clear
4:15 PM 66.2 °F 33.8 °F 30% 29.74 in 10.0 mi West 13.8 mph 24.2 mph N/A   Scattered Clouds
4:35 PM 64.4 °F 32.0 °F 30% 29.74 in 10.0 mi West 19.6 mph 28.8 mph N/A   Scattered Clouds
4:55 PM 66.2 °F 33.8 °F 30% 29.74 in 10.0 mi WNW 11.5 mph 27.6 mph N/A   Clear
5:15 PM 64.4 °F 32.0 °F 30% 29.74 in 10.0 mi West 12.7 mph 24.2 mph N/A   Clear
5:35 PM 64.4 °F 32.0 °F 30% 29.74 in 10.0 mi West 12.7 mph 24.2 mph N/A   Clear
5:55 PM 64.4 °F 32.0 °F 30% 29.75 in 10.0 mi West 16.1 mph 25.3 mph N/A   Clear
6:15 PM 64.4 °F 32.0 °F 30% 29.75 in 10.0 mi West 17.3 mph 26.5 mph N/A   Scattered Clouds
6:35 PM 64.4 °F 32.0 °F 30% 29.76 in 10.0 mi West 13.8 mph 24.2 mph N/A   Clear
6:55 PM 62.6 °F 32.0 °F 32% 29.77 in 10.0 mi West 15.0 mph 19.6 mph N/A   Clear
7:15 PM 62.6 °F 32.0 °F 32% 29.77 in 10.0 mi WNW 12.7 mph 24.2 mph N/A   Clear
7:35 PM 60.8 °F 32.0 °F 34% 29.78 in 10.0 mi WNW 8.1 mph 18.4 mph N/A   Clear
7:55 PM 59.0 °F 32.0 °F 36% 29.80 in 10.0 mi West 6.9 mph - N/A   Clear
8:15 PM 59.0 °F 33.8 °F 39% 29.81 in 10.0 mi West 4.6 mph - N/A   Clear
8:35 PM 57.2 °F 33.8 °F 41% 29.82 in 10.0 mi West 3.5 mph - N/A   Scattered Clouds
8:55 PM 53.6 °F 35.6 °F 51% 29.82 in 10.0 mi Calm Calm - N/A   Mostly Cloudy
9:15 PM 51.8 °F 37.4 °F 58% 29.83 in 10.0 mi WSW 3.5 mph - N/A   Mostly Cloudy
9:35 PM 53.6 °F 37.4 °F 54% 29.85 in 10.0 mi West 4.6 mph - N/A   Mostly Cloudy
9:55 PM 55.4 °F 35.6 °F 47% 29.86 in 10.0 mi West 4.6 mph - N/A   Overcast
10:15 PM 53.6 °F 37.4 °F 54% 29.87 in 10.0 mi Calm Calm - N/A   Overcast
10:35 PM 51.8 °F 37.4 °F 58% 29.88 in 10.0 mi Calm Calm - N/A   Scattered Clouds
10:55 PM 50.0 °F 37.4 °F 62% 29.88 in 10.0 mi West 3.5 mph - N/A   Scattered Clouds
11:15 PM 50.0 °F 37.4 °F 62% 29.89 in 10.0 mi West 3.5 mph - N/A   Mostly Cloudy
11:35 PM 51.8 °F 37.4 °F 58% 29.89 in 10.0 mi WNW 4.6 mph - N/A   Mostly Cloudy
11:55 PM 51.8 °F 35.6 °F 54% 29.90 in 10.0 mi West 4.6 mph - N/A   Clear